SCP
-0 -0 -0 0 0 0 0 0 -0 -0 -0 -0 -0 0 0 0 0 -0 -0 -0 0 0 0 -0 0 0 0 0 0 0 0 0 0
0 0 0 0 0 0 0 0 0 -0 -0 -0 0 -0 0 0 -0 0 0 0 -0 0 0 0 0 0 0 -0 -0 -0 0 0 0
0 -0 -0 0 0 0 0 0 0 0 0 0 0 0 0 0 0 -0 0 0 0 0 0 0 0 0 0 0 0 0 0 0 0
-0 0 0 1 0 0 0 0 0 0 0 0 0 0 0 0 0 0 0 0 0 0 0 0 0 0 0 0 0 0 -0 -0 0
-0 -0 0 0 1 1 1 1 0 2 1 0 0 0 0 0 0 0 0 0 0 0 0 0 0 0 0 0 0 0 0 -0 0
-0 0 0 0 0 1 0 0 0 1 0 0 0 0 1 0 0 0 0 0 0 0 0 0 0 0 0 0 0 0 0 0 -0
0 0 0 0 0 -0 0 1 1 0 0 0 0 1 1 1 0 1 0 0 1 1 0 0 0 0 0 0 0 0 -0 0 0
0 0 0 -0 0 0 0 0 -0 1 1 1 0 0 1 0 1 1 1 1 1 1 1 0 1 0 0 0 0 0 0 0 0
0 0 0 1 1 0 0 0 0 0 0 0 1 0 1 1 0 1 0 1 1 1 1 1 1 1 1 1 0 0 0 0 0
1 2 2 1 1 1 0 0 -0 0 0 0 0 0 0 0 0 0 0 1 1 1 1 1 1 1 1 0 0 0 0 0 0
0 0 0 0 0 0 0 0 0 0 0 0 0 0 0 0 0 0 0 0 1 1 1 1 1 2 0 0 0 0 0 0 0
0 0 0 0 0 0 0 0 0 0 0 0 0 0 0 0 0 0 0 0 0 0 0 0 0 0 0 0 0 0 0 0 2
0 0 0 0 0 0 0 0 0 0 0 0 0 0 0 0 0 0 0 0 0 0 0 0 0 0 0 0 0 0 0 0 0
0 0 0 0 0 0 0 0 0 0 0 0 0 0 0 0 0 0 0 0 0 0 0 0 0 0 0 0 0 0 0 0 0
0 0 0 0 0 0 0 0 0 0 0 0 0 0 0 0 0 0 0 0 0 0 0 0 0 0 0 0 0 0 0 0 0
0 0 0 0 0 0 0 0 0 0 0 0 0 0 0 0 0 0 0 0 0 0 0 0 0 -0 -0 -0 0 0 0 0 0
0 0 0 0 0 0 0 0 0 0 0 0 0 0 0 0 0 0 0 0 0 0 0 0 0 0 0 0 0 0 0 0 0
0 0 0 0 0 0 0 0 0 0 0 0 0 0 0 0 0 0 0 0 0 0 0 0 0 0 0 0 0 0 0 0 0
0 0 0 0 0 0 0 0 0 0 0 0 0 0 0 0 0 0 0 0 0 0 0 0 0 0 0 0 0 0 0 0 0
0 0 0 0 0 0 0 0 0 0 0 0 0 0 0 0 0 0 0 0 0 0 0 0 0 0 0 0 0 0 0 0 0
Wind_Speed_500mb
69 76 64 75 68 67 64 53 64 52 44 39 31 34 33 29 22 16 18 23 26 18 22 20 18 28 26 23 19 16 15 12 10
77 82 65 79 81 94 64 54 54 56 45 42 43 37 36 33 30 28 19 25 24 19 20 16 23 19 26 23 19 18 21 14 13
68 48 76 73 61 79 74 71 47 54 45 39 47 42 40 38 30 32 28 27 31 19 30 23 24 21 22 25 24 29 30 17 15
60 55 44 43 68 77 73 55 58 51 43 40 42 47 33 35 32 26 29 24 24 30 28 23 28 24 21 25 29 23 22 26 26
70 67 54 43 51 60 76 74 71 50 41 41 45 48 44 41 35 30 18 25 16 15 26 29 31 24 28 27 23 22 24 20 18
76 61 55 49 39 47 62 58 46 34 51 50 43 48 51 43 44 41 32 23 24 19 18 15 26 26 27 28 27 28 27 25 24
58 54 60 54 31 17 45 39 12 47 31 42 53 48 49 45 40 31 29 25 22 27 20 14 14 23 22 23 21 23 21 24 24
57 56 50 56 47 53 35 48 50 38 54 59 61 55 31 16 27 25 29 26 26 27 29 22 18 17 20 16 17 24 26 25 27
44 44 46 42 52 51 50 49 56 56 49 48 42 45 46 46 20 29 31 38 36 30 28 32 31 26 25 22 33 33 33 28 21
18 23 33 38 46 58 61 66 54 44 40 37 34 28 26 25 25 26 23 18 21 26 36 35 31 28 31 37 43 37 33 28 28
23 32 28 40 44 42 30 25 29 33 39 37 31 23 21 22 18 25 33 26 26 27 32 36 33 34 39 39 40 35 35 37 34
16 25 24 27 34 35 43 39 38 38 31 26 22 17 16 13 12 17 21 26 21 27 29 32 33 32 32 23 19 24 26 27 31
20 20 24 25 23 22 22 28 31 23 29 33 32 31 21 11 11 15 19 15 13 13 30 23 23 28 29 27 26 14 11 16 18
28 26 26 23 23 21 21 24 26 27 28 27 28 24 21 20 13 12 12 19 16 15 14 19 19 17 23 24 17 14 15 17 15
31 30 31 30 30 27 22 19 18 20 20 23 27 35 41 33 25 18 19 16 16 14 19 19 11 11 11 12 13 12 11 14 16
31 31 32 31 32 30 23 24 20 19 20 21 23 28 33 33 22 22 19 25 22 17 15 8 11 11 8 3 10 10 9 7 8
33 32 31 27 28 28 25 21 19 19 20 18 16 15 17 19 20 22 21 20 22 21 24 26 19 19 17 16 24 12 11 14 16
28 30 26 24 22 25 22 18 17 16 17 18 13 14 9 10 14 17 21 23 28 29 26 30 27 26 27 22 21 11 12 19 22
34 33 27 28 22 24 25 21 18 17 15 17 14 13 11 5 1 7 14 27 32 27 23 32 35 33 36 26 32 30 24 15 9
33 27 25 24 27 26 23 21 17 16 17 17 23 13 19 11 18 8 9 11 11 18 25 26 34 38 38 33 25 17 10 5 8
Wind_Direction_500mb
205 211 208 184 191 182 177 180 171 172 182 187 187 182 177 176 175 173 166 172 169 181 199 214 218 217 232 223 204 202 230 237 233
206 211 188 191 174 177 184 190 173 185 187 187 181 184 188 189 187 174 191 189 181 185 165 215 229 244 216 186 204 231 234 227 226
207 203 174 178 169 179 174 177 179 189 193 194 179 188 199 194 197 191 190 188 185 197 182 202 226 221 210 180 208 226 227 218 247
195 197 196 162 190 178 173 170 181 183 189 184 178 194 202 189 193 200 195 194 198 196 204 202 221 218 205 212 217 226 230 215 236
185 196 202 195 168 173 163 171 175 176 180 189 187 194 202 194 184 192 205 182 208 211 220 224 224 219 216 212 217 234 236 228 226
175 186 197 199 156 169 179 162 166 199 200 186 196 203 204 207 191 186 189 209 192 217 245 235 214 215 222 223 213 233 240 231 224
163 173 190 191 202 150 183 179 197 207 193 230 226 208 204 200 195 196 193 196 206 221 232 229 231 218 223 231 232 241 247 250 241
165 173 177 190 186 188 177 161 210 202 193 189 204 219 206 218 176 195 205 195 205 220 225 232 225 220 214 228 247 236 256 246 253
160 175 185 178 175 169 174 168 192 209 197 196 219 231 237 244 200 203 226 220 218 217 213 226 224 225 229 229 237 241 245 250 245
131 132 161 162 170 174 171 177 183 195 193 199 213 222 211 211 206 213 220 220 230 237 232 229 221 223 220 229 235 239 243 241 230
130 134 146 163 169 165 169 186 196 200 204 209 212 237 236 239 233 245 252 250 244 244 233 228 226 230 235 240 244 253 253 245 245
159 162 159 142 166 169 181 183 198 196 199 210 218 194 173 186 208 226 237 239 247 246 224 217 223 229 237 248 256 257 253 253 244
147 157 168 186 196 188 186 199 198 200 198 194 185 186 187 198 229 230 244 234 227 221 215 224 230 230 239 248 260 262 240 231 224
129 139 145 156 160 171 178 182 193 194 186 192 205 210 203 175 191 192 204 212 217 197 189 235 244 218 215 228 238 244 224 211 208
122 122 122 121 128 137 141 147 163 167 170 172 179 179 170 169 169 182 190 182 197 210 211 229 228 194 182 191 198 198 199 204 214
122 121 117 115 115 110 111 117 120 141 156 166 176 184 184 167 153 190 182 180 163 155 152 108 121 96 42 312 214 199 189 193 203
134 131 126 124 120 120 122 124 132 133 133 133 132 148 168 179 155 137 138 137 147 192 179 168 171 179 165 237 267 254 239 242 247
137 132 130 136 130 122 116 110 113 123 123 113 105 111 134 177 184 195 181 183 199 192 201 191 184 190 200 206 245 262 269 268 272
151 150 141 135 134 144 135 133 133 128 132 141 129 120 124 137 200 275 232 220 221 226 223 216 212 216 225 234 246 265 278 274 260
165 151 153 146 159 139 149 140 136 133 139 143 154 131 168 173 151 182 250 303 294 246 240 233 233 240 250 253 252 252 246 215 146
Wind_Speed_850mb
69 76 64 75 68 67 64 53 64 52 44 39 31 34 33 29 22 16 18 23 26 18 22 20 18 28 26 23 19 16 15 12 10
77 82 65 79 81 94 64 54 54 56 45 42 43 37 36 33 30 28 19 25 24 19 20 16 23 19 26 23 19 18 21 14 13
68 48 76 73 61 79 74 71 47 54 45 39 47 42 40 38 30 32 28 27 31 19 30 23 24 21 22 25 24 29 30 17 15
60 55 44 43 68 77 73 55 58 51 43 40 42 47 33 35 32 26 29 24 24 30 28 23 28 24 21 25 29 23 22 26 26
70 67 54 43 51 60 76 74 71 50 41 41 45 48 44 41 35 30 18 25 16 15 26 29 31 24 28 27 23 22 24 20 18
76 61 55 49 39 47 62 58 46 34 51 50 43 48 51 43 44 41 32 23 24 19 18 15 26 26 27 28 27 28 27 25 24
58 54 60 54 31 17 45 39 12 47 31 42 53 48 49 45 40 31 29 25 22 27 20 14 14 23 22 23 21 23 21 24 24
57 56 50 56 47 53 35 48 50 38 54 59 61 55 31 16 27 25 29 26 26 27 29 22 18 17 20 16 17 24 26 25 27
44 44 46 42 52 51 50 49 56 56 49 48 42 45 46 46 20 29 31 38 36 30 28 32 31 26 25 22 33 33 33 28 21
18 23 33 38 46 58 61 66 54 44 40 37 34 28 26 25 25 26 23 18 21 26 36 35 31 28 31 37 43 37 33 28 28
23 32 28 40 44 42 30 25 29 33 39 37 31 23 21 22 18 25 33 26 26 27 32 36 33 34 39 39 40 35 35 37 34
16 25 24 27 34 35 43 39 38 38 31 26 22 17 16 13 12 17 21 26 21 27 29 32 33 32 32 23 19 24 26 27 31
20 20 24 25 23 22 22 28 31 23 29 33 32 31 21 11 11 15 19 15 13 13 30 23 23 28 29 27 26 14 11 16 18
28 26 26 23 23 21 21 24 26 27 28 27 28 24 21 20 13 12 12 19 16 15 14 19 19 17 23 24 17 14 15 17 15
31 30 31 30 30 27 22 19 18 20 20 23 27 35 41 33 25 18 19 16 16 14 19 19 11 11 11 12 13 12 11 14 16
31 31 32 31 32 30 23 24 20 19 20 21 23 28 33 33 22 22 19 25 22 17 15 8 11 11 8 3 10 10 9 7 8
33 32 31 27 28 28 25 21 19 19 20 18 16 15 17 19 20 22 21 20 22 21 24 26 19 19 17 16 24 12 11 14 16
28 30 26 24 22 25 22 18 17 16 17 18 13 14 9 10 14 17 21 23 28 29 26 30 27 26 27 22 21 11 12 19 22
34 33 27 28 22 24 25 21 18 17 15 17 14 13 11 5 1 7 14 27 32 27 23 32 35 33 36 26 32 30 24 15 9
33 27 25 24 27 26 23 21 17 16 17 17 23 13 19 11 18 8 9 11 11 18 25 26 34 38 38 33 25 17 10 5 8
Wind_Direction_850mb
205 211 208 184 191 182 177 180 171 172 182 187 187 182 177 176 175 173 166 172 169 181 199 214 218 217 232 223 204 202 230 237 233
206 211 188 191 174 177 184 190 173 185 187 187 181 184 188 189 187 174 191 189 181 185 165 215 229 244 216 186 204 231 234 227 226
207 203 174 178 169 179 174 177 179 189 193 194 179 188 199 194 197 191 190 188 185 197 182 202 226 221 210 180 208 226 227 218 247
195 197 196 162 190 178 173 170 181 183 189 184 178 194 202 189 193 200 195 194 198 196 204 202 221 218 205 212 217 226 230 215 236
185 196 202 195 168 173 163 171 175 176 180 189 187 194 202 194 184 192 205 182 208 211 220 224 224 219 216 212 217 234 236 228 226
175 186 197 199 156 169 179 162 166 199 200 186 196 203 204 207 191 186 189 209 192 217 245 235 214 215 222 223 213 233 240 231 224
163 173 190 191 202 150 183 179 197 207 193 230 226 208 204 200 195 196 193 196 206 221 232 229 231 218 223 231 232 241 247 250 241
165 173 177 190 186 188 177 161 210 202 193 189 204 219 206 218 176 195 205 195 205 220 225 232 225 220 214 228 247 236 256 246 253
160 175 185 178 175 169 174 168 192 209 197 196 219 231 237 244 200 203 226 220 218 217 213 226 224 225 229 229 237 241 245 250 245
131 132 161 162 170 174 171 177 183 195 193 199 213 222 211 211 206 213 220 220 230 237 232 229 221 223 220 229 235 239 243 241 230
130 134 146 163 169 165 169 186 196 200 204 209 212 237 236 239 233 245 252 250 244 244 233 228 226 230 235 240 244 253 253 245 245
159 162 159 142 166 169 181 183 198 196 199 210 218 194 173 186 208 226 237 239 247 246 224 217 223 229 237 248 256 257 253 253 244
147 157 168 186 196 188 186 199 198 200 198 194 185 186 187 198 229 230 244 234 227 221 215 224 230 230 239 248 260 262 240 231 224
129 139 145 156 160 171 178 182 193 194 186 192 205 210 203 175 191 192 204 212 217 197 189 235 244 218 215 228 238 244 224 211 208
122 122 122 121 128 137 141 147 163 167 170 172 179 179 170 169 169 182 190 182 197 210 211 229 228 194 182 191 198 198 199 204 214
122 121 117 115 115 110 111 117 120 141 156 166 176 184 184 167 153 190 182 180 163 155 152 108 121 96 42 312 214 199 189 193 203
134 131 126 124 120 120 122 124 132 133 133 133 132 148 168 179 155 137 138 137 147 192 179 168 171 179 165 237 267 254 239 242 247
137 132 130 136 130 122 116 110 113 123 123 113 105 111 134 177 184 195 181 183 199 192 201 191 184 190 200 206 245 262 269 268 272
151 150 141 135 134 144 135 133 133 128 132 141 129 120 124 137 200 275 232 220 221 226 223 216 212 216 225 234 246 265 278 274 260
165 151 153 146 159 139 149 140 136 133 139 143 154 131 168 173 151 182 250 303 294 246 240 233 233 240 250 253 252 252 246 215 146